Regional Weather Roundup
Issued by NWS Sioux Falls, SD

Home | Current Version | Previous Version | Text Only | Print | Product List | Glossary On
Versions: 1 2 3 4 5 6 7 8 9 10 11 12 13 14 15 16 17 18 19 20 21 22 23 24 25 26 27 28 29 30 31 32 33 34 35 36 37 38 39 40 41 42 43 44 45 46 47 48 49 50
000
ASUS43 KFSD 020410
RWRFSD

WEATHER ROUNDUP FOR SE SOUTH DAKOTA/SW MINNESOTA/NW IOWA
NATIONAL WEATHER SERVICE SIOUX FALLS SD
1100 PM CDT WED APR 01 2015

NOTE: "FAIR" INDICATES FEW OR NO CLOUDS BELOW 12,000 FEET WITH NO
SIGNIFICANT WEATHER AND OR OBSTRUCTIONS TO VISIBILITY.


SDZ038>040-050-052>070-020500-
SOUTHEAST SOUTH DAKOTA

CITY           SKY/WX    TMP DP  RH WIND       PRES   REMARKS
BROOKINGS      MOCLDY    52  30  43 NW13      29.67S
CHAMBERLAIN    MOCLDY    51  24  34 NW14      29.74F
HURON          CLEAR     49  27  42 NW14      29.70R
MADISON        FAIR      54  28  37 N20       29.68R
MITCHELL       PTCLDY    55  27  34 NW18      29.72R
SIOUX FALLS    CLOUDY    59  29  31 N18       29.66R
WINNER         FAIR      52  20  28 NW13      29.76F
YANKTON        CLOUDY    61  28  29 NW17      29.70R
$$

MNZ071-072-080-081-089-090-097-098-020500-
SOUTHWEST MINNESOTA

CITY           SKY/WX    TMP DP  RH WIND       PRES   REMARKS
FAIRMONT       CLOUDY    55  48  76 CALM      29.64R
JACKSON        CLOUDY    55  45  67 N6        29.63S
LUVERNE        CLOUDY    55  41  58 N8        29.64F
MARSHALL       CLOUDY    54  34  47 NW15      29.64F
MONTEVIDEO     CLOUDY    57  34  41 N14G20    29.65R
PIPESTONE      CLOUDY    57  36  44 N9        29.64F
REDWOOD FALLS  CLOUDY    57  39  51 NW12      29.60F
TRACY          CLOUDY    58  38  47 NW13      29.63F
WINDOM         CLOUDY    55  45  67 NW10      29.62S
WORTHINGTON    CLOUDY    54  41  62 NW13      29.64F
$$

IAZ001>003-012>014-020>022-031-032-NEZ013-014-SDZ071-020500-
NORTHWEST IOWA

CITY           SKY/WX    TMP DP  RH WIND       PRES   REMARKS
CHEROKEE       LGT RAIN  56  53  90 E3        29.65R
DENISON        HVY RAIN  57  57 100 NW5       29.66R
ESTHERVILLE    CLOUDY    54  49  83 N6        29.62R
LE MARS        CLOUDY    57  46  67 NW6       29.67R
ORANGE CITY    CLOUDY    59  45  58 N7        29.65R
SHELDON        CLOUDY    54  48  82 N7        29.62R
SIOUX CITY     CLOUDY    59  49  69 NE7       29.66R
SPENCER        CLOUDY    56  50  80 N5        29.63S
STORM LAKE     LGT RAIN  55  52  88 S8        29.67R
$$

ABBREVIATIONS USED IN REMARKS
   TC - TEMPERATURE IN CELSIUS
  WCI - WIND CHILL INDEX
   HX - HEAT INDEX
  VSB - VISIBILITY



USA.gov is the U.S. government's official web portal to all federal, state and local government web resources and services.